Preview of NWS' New Version of Forecast
This preview is not operational and should not be used for support decisions.

Regional Weather Roundup (RWR)

Issued by Gray - Portland, ME (GYX)

                            
604 
ASUS41 KGYX 211110
RWRGYX
WEATHER ROUNDUP FOR MAINE AND NEW HAMPSHIRE
NATIONAL WEATHER SERVICE GRAY ME
700 AM EDT SAT APR 21 2018

MEZ002-005-006-010-012-015-018-020-021-024-026-027-029-211200-
MAINE
  
CITY           SKY/WX    TMP DP  RH WIND       PRES   REMARKS
PORTLAND       FAIR      37  27  67 SW3       30.25R                  
SANFORD        FAIR      37  27  67 NW8       30.26R                  
BAR HARBOR     FAIR      37  30  75 NW5       30.18R                  
WISCASSET      FAIR      33  30  88 CALM      30.24R                  
ROCKLAND       FAIR      34  28  79 CALM      30.21R                  
FRYEBURG       FAIR      30  27  88 CALM      30.24R                  
LEWISTONAUBURN PTSUNNY   36  26  67 W7        30.24R                  
AUGUSTA        PTSUNNY   37  27  67 NW8       30.21R                  
WATERVILLE     FAIR      37  28  70 NW7       30.18R                  
BANGOR         FAIR      37  30  75 W9        30.18R                  
GREENVILLE       N/A     32  27  81 NW12G18   30.12R                  
MILLINOCKET    PTSUNNY   35  28  75 NW5       30.17R                  
HOULTON        FAIR      34  28  79 NW8       30.11R                  
PRESQUE ISLE   FAIR      33  25  72 W7        30.12R                  
FRENCHVILLE    FAIR      32  20  61 NW13      30.09R                  
CARIBOU        FAIR      32  24  72 NW8       30.10R                  
$$

NHZ002-005-008-009-011-012-014-211200-
NEW HAMPSHIRE
  
CITY           SKY/WX    TMP DP  RH WIND       PRES   REMARKS
PORTSMOUTH     MOSUNNY   38  27  62 W9        30.25R                  
ROCHESTER      FAIR      37  27  67 W7        30.26R                  
NASHUA         FAIR      37  28  70 W7        30.30R                  
MANCHESTER     FAIR      35  27  72 SE3       30.28R                  
CONCORD        FAIR      33  26  75 CALM      30.29R                  
LACONIA        FAIR      35  33  92 CALM      30.27R                  
PLYMOUTH       FAIR      33  28  82 CALM      30.27R                  
BERLIN         CLOUDY    33  28  81 CALM      30.22R                  
WHITEFIELD     CLOUDY    31  29  92 CALM      30.25R                  
JAFFREY        FAIR      35  27  72 VRB5      30.28R                  
KEENE          FAIR      28  27  96 CALM      30.32R                  
LEBANON        FAIR      29  24  82 CALM      30.29R                  
MT WASHINGTON  BLWGSNOW  14  14 100 NW53G75     N/A  VSB 1/16WCI -12  
$$

VTZ005-007-008-211200-
VERMONT
  
CITY           SKY/WX    TMP DP  RH WIND       PRES   REMARKS
ST JOHNSBURY     N/A     30  28  92 MISG      30.26R                  
MONTPELIER     FAIR      34  25  69 W9        30.31R                  
BURLINGTON     FAIR      33  28  81 CALM      30.32R                  
$$

MAZ007-012-024-CTZ003-RIZ002-NYZ038-NYZ072-211200-
SOUTHERN NEW ENGLAND AND NY
  
CITY           SKY/WX    TMP DP  RH WIND       PRES   REMARKS
BOSTON         FAIR      40  27  59 W12       30.30R                  
WORCESTER      FAIR      32  24  72 W9        30.29R                  
NANTUCKET      FAIR      41  31  67 NW13      30.28R                  
PROVIDENCE     FAIR      40  28  62 W10       30.33R                  
HARTFORD       FAIR      35  26  69 CALM      30.35R                  
ALBANY         FAIR      36  25  64 W8        30.37R                  
NEW YORK CITY  FAIR      42  26  53 NW12      30.40R                  
$$

ANZ081-ANZ082-ANZ150-NHZ014-MEZ023>029-211200-
COASTAL MARINE OBSERVATIONS
  
STATION/POSITION TIME  TEMP    WIND        PRES    WAVE
                       AIR SEA DIR/SP/G            HT/PER
                 (UTC) (F)     (DEG/KT/KT) (MB)    (FT/S)
MOUNT DESERT ROC 1100   39     300/ 19/ 20 1021.9R
MATINICUS ROCK   1100   40     310/ 18/ 20 1022.1R
ISLE OF SHOALS   1100   39     290/ 13/ 15 1024.3R
JEFFREYS LEDGE   1036      41                N/A     3/ 4
CASHES LEDGE BUO 1050   42 40              1022.9R   3/ 5
$$

.............KEY..............
   WCI - WIND CHILL
   TC  - TEMPERATURE IN CELSIUS
   VSB - VISIBILITY IN MILES
   HX  - HEAT INDEX
   FAIR- INDICATES FEW OR NO CLOUDS BELOW 12,000 FT, WITH NO 
         SIGNIFICANT WEATHER AND/OR OBSTRUCTIONS TO VISIBILITY.